GW7398 Weather Reports


time (UTC)temp
F
wind
direction
speed
knots
gust
knots
rain 1hr
in
rain 24hr
in
rain mn
in
humidity
%
barometer
mb
20260906231523 72 276 1.7 3.5 0.00 0.00 0.00 60 1014.1
20260906230536 72 263 1.7 7.0 0.00 0.00 0.00 58 1014.0
20260906225519 71 265 2.6 5.2 0.00 0.00 0.00 60 1014.1
20260906224523 71 258 2.6 5.2 0.00 0.00 0.00 61 1014.2
20260906223516 71 252 1.7 4.3 0.00 0.00 0.00 62 1014.3
20260906222519 70 269 2.6 6.1 0.00 0.00 0.00 64 1014.4
20260906221542 69 269 1.7 3.5 0.00 0.00 0.00 66 1014.4
20260906220516 68 264 1.7 4.3 0.00 0.00 0.00 68 1014.4
20260906215518 68 270 1.7 4.3 0.00 0.00 0.00 70 1014.3
20260906214522 68 269 2.6 4.3 0.00 0.00 0.00 72 1014.6
20260906213525 67 266 1.7 4.3 0.00 0.00 0.00 75 1014.8
20260906212518 67 269 1.7 3.5 0.00 0.00 0.00 75 1014.7
20260906211521 67 247 1.7 3.5 0.00 0.00 0.00 77 1014.8
20260906210525 66 267 1.7 5.2 0.00 0.00 0.00 77 1014.9
20260906205518 66 259 1.7 4.3 0.00 0.00 0.00 79 1015.0
20260906204542 66 253 1.7 3.5 0.00 0.00 0.00 78 1015.2
20260906203524 65 254 2.6 5.2 0.00 0.00 0.00 80 1015.3
20260906202518 65 262 2.6 5.2 0.00 0.00 0.00 79 1015.4
20260906201521 65 268 2.6 6.1 0.00 0.00 0.00 78 1015.4
20260906195517 65 275 1.7 3.5 0.00 0.00 0.00 79 1015.6
20260906194601 64 264 1.7 6.1 0.00 0.00 0.00 80 1015.8
20260906193524 64 253 1.7 5.2 0.00 0.00 0.00 80 1016.0
20260906192518 64 268 2.6 6.1 0.00 0.00 0.00 81 1015.9
20260906191520 64 264 2.6 7.0 0.00 0.00 0.00 81 1016.0
20260906190524 64 264 2.6 5.2 0.00 0.00 0.00 79 1016.0
20260906185517 64 276 2.6 5.2 0.00 0.00 0.00 78 1016.2
20260906184520 64 272 2.6 5.2 0.00 0.00 0.00 77 1016.3
20260906183524 64 272 2.6 5.2 0.00 0.00 0.00 76 1016.4
20260906182557 64 270 1.7 3.5 0.00 0.00 0.00 76 1016.5
20260906181520 63 270 1.7 3.5 0.00 0.00 0.00 76 1016.7
20260906180523 63 271 3.5 5.2 0.00 0.00 0.00 74 1016.5
20260906175517 63 292 1.7 3.5 0.00 0.00 0.00 74 1016.7
20260906174519 62 271 1.7 3.5 0.00 0.00 0.00 74 1016.7
20260906173523 62 268 1.7 4.3 0.00 0.00 0.00 72 1016.7
20260906172517 62 267 2.6 5.2 0.00 0.00 0.00 73 1016.8
20260906171520 63 260 1.7 5.2 0.00 0.00 0.00 70 1017.0
20260906170523 63 263 0.9 3.5 0.00 0.00 0.00 67 1017.0
20260906165516 63 254 0.9 3.5 0.00 0.00 0.00 71 1017.0
20260906164519 63 103 0.9 2.6 0.00 0.00 0.00 69 1017.2
20260906163522 61 350 0.0 1.7 0.00 0.00 0.00 74 1017.3
20260906162515 60 271 1.7 3.5 0.00 0.00 0.00 76 1017.3
20260906161519 60 275 2.6 4.3 0.00 0.00 0.00 77 1017.1
20260906160522 60 275 2.6 4.3 0.00 0.00 0.00 75 1017.2
20260906155535 61 274 2.6 4.3 0.00 0.00 0.00 72 1017.2
20260906154518 62 276 0.9 2.6 0.00 0.00 0.00 71 1017.2
20260906153522 61 24 0.9 1.7 0.00 0.00 0.00 73 1017.2
20260906152525 60 346 0.0 1.7 0.00 0.00 0.00 74 1017.3
20260906151518 60 145 0.0 2.6 0.00 0.00 0.00 76 1017.2
20260906150521 59 66 0.9 2.6 0.00 0.00 0.00 78 1017.3
20260906145525 59 94 0.9 1.7 0.00 0.00 0.00 78 1017.2
20260906144538 58 125 0.0 1.7 0.00 0.00 0.00 80 1017.2
20260906143521 56 248 0.0 1.7 0.00 0.00 0.00 85 1017.2
20260906142605 54 122 0.0 1.7 0.00 0.00 0.00 89 1017.1
20260906141518 53 0.0 0.0 0.00 0.00 0.00 92 1017.0
20260906140521 53 0.0 0.9 0.00 0.00 0.00 92 1017.0
20260906135545 53 0.0 0.0 0.00 0.00 0.00 92 1017.0
20260906134537 53 0.0 0.0 0.00 0.00 0.00 92 1017.0
20260906133520 53 0.0 0.0 0.00 0.00 0.00 91 1017.0
20260906132544 53 0.0 0.9 0.00 0.00 0.00 91 1017.0
20260906131517 53 0.0 0.9 0.00 0.00 0.00 90 1017.0
20260906130520 53 75 0.0 0.9 0.00 0.00 0.00 91 1017.0
20260906125524 54 0.0 0.0 0.00 0.00 0.00 90 1017.0
20260906124517 54 0.0 0.0 0.00 0.00 0.00 89 1017.1
20260906123520 54 43 0.0 0.9 0.00 0.00 0.00 90 1017.0
20260906122523 54 260 0.0 1.7 0.00 0.00 0.00 91 1017.1
20260906121516 54 0.0 0.9 0.00 0.00 0.00 91 1017.0
20260906120520 54 0.0 0.9 0.00 0.00 0.00 90 1017.0
20260906115523 54 0.0 0.0 0.00 0.00 0.00 90 1017.0
20260906114516 55 0.0 0.9 0.00 0.00 0.00 90 1017.0
20260906113519 54 305 0.0 1.7 0.00 0.00 0.00 90 1017.0
20260906112523 54 102 0.0 1.7 0.00 0.00 0.00 91 1017.0
20260906111516 54 0.0 0.9 0.00 0.00 0.00 90 1016.8
20260906110539 55 304 0.0 1.7 0.00 0.00 0.00 89 1017.0
20260906105522 55 108 0.0 0.9 0.00 0.00 0.00 90 1017.0
20260906104515 55 65 0.0 0.9 0.00 0.00 0.00 92 1017.0
20260906103519 55 63 0.0 0.9 0.00 0.00 0.00 93 1017.0
20260906102522 55 129 0.0 0.9 0.00 0.00 0.00 93 1017.0
20260906101515 55 251 0.0 1.7 0.00 0.00 0.00 92 1017.0
20260906100539 55 0.0 0.9 0.00 0.00 0.00 91 1017.1
20260906095522 55 0.0 0.0 0.00 0.00 0.00 92 1017.0
20260906094525 55 42 0.0 0.9 0.00 0.00 0.00 90 1017.1
20260906093519 56 0.0 0.9 0.00 0.00 0.00 90 1017.2
20260906092542 56 52 0.0 1.7 0.00 0.00 0.00 90 1017.2
20260906091525 56 104 0.0 0.9 0.00 0.00 0.00 89 1017.5
20260906090518 56 256 0.0 0.9 0.00 0.00 0.00 89 1017.5
20260906085521 56 314 0.0 0.9 0.00 0.00 0.00 87 1017.3
20260906084524 56 297 0.0 1.7 0.00 0.00 0.00 87 1017.6
20260906083518 57 0.0 0.0 0.00 0.00 0.00 86 1017.4
20260906082521 57 280 0.0 1.7 0.00 0.00 0.00 86 1017.4
20260906081524 56 99 0.0 0.9 0.00 0.00 0.00 87 1017.5
20260906080518 57 0.0 0.0 0.00 0.00 0.00 85 1017.5
20260906075521 57 0.0 0.0 0.00 0.00 0.00 84 1017.4
20260906074524 57 0.0 0.0 0.00 0.00 0.00 84 1017.3
20260906073537 57 96 0.0 0.9 0.00 0.00 0.00 84 1017.5
20260906072521 58 0.0 0.9 0.00 0.00 0.00 83 1017.5
20260906071544 58 0.0 0.9 0.00 0.00 0.00 82 1017.5
20260906070517 59 0.0 0.9 0.00 0.00 0.00 80 1017.6
20260906065520 59 69 0.0 0.9 0.00 0.00 0.00 81 1017.7
20260906064524 59 105 0.0 1.7 0.00 0.00 0.00 82 1017.6
20260906063517 58 0.0 0.0 0.00 0.00 0.00 85 1017.5
20260906062520 59 0.0 1.7 0.00 0.00 0.00 85 1017.5
20260906061524 58 92 0.0 1.7 0.00 0.00 0.00 89 1017.5
20260906060517 59 0.0 0.0 0.00 0.00 0.00 89 1017.4
20260906055520 59 0.0 0.9 0.00 0.00 0.00 89 1017.5
20260906054523 59 263 0.0 1.7 0.00 0.00 0.00 89 1017.3
20260906053516 59 0.0 0.9 0.00 0.00 0.00 89 1017.5
20260906052520 60 0.0 0.0 0.00 0.00 0.00 88 1017.3
20260906051523 59 83 0.0 0.9 0.00 0.00 0.00 89 1017.5
20260906050517 59 255 0.0 1.7 0.00 0.00 0.00 88 1017.4
20260906045540 60 0.0 0.9 0.00 0.00 0.00 87 1017.6
20260906044543 60 0.0 0.9 0.00 0.00 0.00 87 1017.7
20260906043516 60 94 0.9 1.7 0.00 0.00 0.00 86 1017.5
20260906042519 61 25 0.0 1.7 0.00 0.00 0.00 86 1017.5
20260906041522 61 0.0 0.0 0.00 0.00 0.00 85 1017.4
20260906040536 62 292 0.0 0.9 0.00 0.00 0.00 83 1017.6
20260906035519 62 106 0.0 1.7 0.00 0.00 0.00 83 1017.6
20260906034523 62 89 0.0 0.9 0.00 0.00 0.00 83 1017.5
20260906033516 62 0.0 0.9 0.00 0.00 0.00 83 1017.5
20260906032519 62 35 0.0 0.9 0.00 0.00 0.00 83 1017.4
20260906031523 63 80 0.0 0.9 0.00 0.00 0.00 82 1017.3
20260906030516 63 67 0.0 1.7 0.00 0.00 0.00 81 1017.4
20260906025519 64 345 0.0 1.7 0.00 0.00 0.00 79 1017.3
20260906024523 64 98 0.0 0.9 0.00 0.00 0.00 77 1017.5
20260906023515 64 288 0.0 1.7 0.00 0.00 0.00 77 1017.2
20260906022519 65 59 0.0 1.7 0.00 0.00 0.00 77 1017.3
20260906021522 65 14 0.0 1.7 0.00 0.00 0.00 76 1017.1
20260906020515 66 307 0.9 1.7 0.00 0.00 0.00 75 1017.2
20260906015519 67 204 0.9 2.6 0.00 0.00 0.00 70 1017.1
20260906014522 69 301 0.9 3.5 0.00 0.00 0.00 67 1017.0
20260906013515 70 320 0.9 3.5 0.00 0.00 0.00 60 1017.0
20260906012518 70 265 0.9 2.6 0.00 0.00 0.00 56 1016.8
20260906011522 70 305 0.9 2.6 0.00 0.00 0.00 56 1016.7
20260906010515 70 293 1.7 3.5 0.00 0.00 0.00 58 1016.6
20260906005519 70 286 1.7 3.5 0.00 0.00 0.00 57 1016.5
20260906004522 71 284 1.7 3.5 0.00 0.00 0.00 57 1016.6
20260906003545 70 282 1.7 3.5 0.00 0.00 0.00 57 1016.7
20260906002538 69 284 1.7 3.5 0.00 0.00 0.00 57 1016.6
20260906001522 70 281 1.7 5.2 0.00 0.00 0.00 58 1016.7
20260906000525 69 287 1.7 3.5 0.00 0.00 0.00 62 1016.6
20260905235518 69 282 1.7 4.3 0.00 0.00 0.00 64 1016.7
20260905234541 69 279 1.7 3.5 0.00 0.00 0.00 63 1016.5
20260905233525 70 298 2.6 5.2 0.00 0.00 0.00 61 1016.7
20260905232518 70 287 2.6 4.3 0.00 0.00 0.00 60 1016.6